Address 0x935f64b44b5c48a1539c4ada5161d27ace4205b5 8

Txn Hash Method
Block
From
To
Value [Txn Fee]
0x7915dd8282020c97de35489726d63de4398307b56c64b547e4733d07ffdfc4deTransfer202578192022-09-25 12:08:4215 mins ago0x935f64b44b5c48a1539c4ada5161d27ace4205b5OUTTether: USDT Token0 AVAX0.010543841332 239.49124
0x5c375fb7fe1283bb62236c21859432100a9b3419b32e0b54225d3fa7f7f55520Transfer202576472022-09-25 12:02:3721 mins ago0x935f64b44b5c48a1539c4ada5161d27ace4205b5OUT Centre: USD Coin0 AVAX0.001821698248 27.802
0x88433247ad307af280c5ee8a8f56de8dfc6ac2be27af78d093ba5f84486ae8e9Transfer202574132022-09-25 11:54:2330 mins ago0x935f64b44b5c48a1539c4ada5161d27ace4205b5OUT Centre: USD Coin0 AVAX0.002153040861 32.852796356
0x112482be691a5ac976c61badeaa37d199b2bbcd90740d2a2c17102071b905b26Transfer202571862022-09-25 11:46:3737 mins ago0x935f64b44b5c48a1539c4ada5161d27ace4205b5OUTTether: USDT Token0 AVAX0.001325900639 30.108103
0xa53c59c2b5eadb07da500059bd214c788c342cb7630c14531b6e7803bd4ce15cTransfer202570932022-09-25 11:43:1941 mins ago0x935f64b44b5c48a1539c4ada5161d27ace4205b5OUTTether: USDT Token0 AVAX0.001843926916 30.166
0x46ac4122e838fae44c3518e58575967eebd2c92b61faeb85014cdc43e366f5e5Transfer202569242022-09-25 11:37:2247 mins ago0x935f64b44b5c48a1539c4ada5161d27ace4205b5OUT Centre: USD Coin0 AVAX0.001802371072 27.502
0xcbfab74ae3f84a6add92039988024b7a4568316747b20e511607f45896b380ecTransfer202568802022-09-25 11:35:4448 mins ago0x935f64b44b5c48a1539c4ada5161d27ace4205b5OUTTether: USDT Token0 AVAX0.001211133076 27.502
0xe72f36f5ec06f4dba0e1a0d5bea2afa8da4155e969f72c05245acb124813b835Transfer202568472022-09-25 11:34:3449 mins ago0x935f64b44b5c48a1539c4ada5161d27ace4205b5OUTTether: USDT Token0 AVAX0.001197595252 27.202
0xd539673d3d3c514878a40e0b0c66627ff6e492ba6b1d081d13777b4a37ac8568Transfer202567622022-09-25 11:31:3352 mins ago0x935f64b44b5c48a1539c4ada5161d27ace4205b5OUTTether: USDT Token0 AVAX0.001452411203 32.980862073
0x0eb35f25fd12a80ef70f26112a97e1f962a80db989feb33236c22f90ff09436fTransfer202564432022-09-25 11:20:341 hr 3 mins ago0x935f64b44b5c48a1539c4ada5161d27ace4205b5OUTTether: USDT Token0 AVAX0.00196858786 44.7020269
0x40451f8150cb56894f551e42f6f557fe4ab765c6956729cec86fd56c835ce9e1Transfer202563272022-09-25 11:16:301 hr 8 mins ago0x935f64b44b5c48a1539c4ada5161d27ace4205b5OUTTether: USDT Token0 AVAX0.001211133076 27.502
0xae516dac5740d00bbf9ef2db96c3809cd041f050e0726fba8236849a1406858fTransfer202562452022-09-25 11:13:391 hr 10 mins ago0x935f64b44b5c48a1539c4ada5161d27ace4205b5OUTTether: USDT Token0 AVAX0.001233196114 28.003
0x634e3807451f0733a2b871fcfbcacce08f9bf8baf3425470f99394424b4ce8eaTransfer202562412022-09-25 11:13:311 hr 11 mins ago0x935f64b44b5c48a1539c4ada5161d27ace4205b5OUTTether: USDT Token0 AVAX0.001321316152 30.004
0x000fd1c3ca9085256e44ec95dddb5a1fe1f78185d65be94a98909c74d1d9fcb5Transfer202561552022-09-25 11:10:331 hr 13 mins ago0x935f64b44b5c48a1539c4ada5161d27ace4205b5OUT Nereus: WXT Token0 AVAX0.001418525658 27.502
0x6f0ca2eacd840a02dd8287680e2e3e6756f8e760b1a453efbb14bdcf6c92ecd2Transfer202560402022-09-25 11:06:281 hr 18 mins ago0x935f64b44b5c48a1539c4ada5161d27ace4205b5OUTTether: USDT Token0 AVAX0.001497688342 34.009
0xdb1b33286ddce5d2e373eed58dfb6c90623978e9c497755d13ceec2f6cf28690Transfer202558912022-09-25 11:01:241 hr 23 mins ago0x935f64b44b5c48a1539c4ada5161d27ace4205b5OUTTether: USDT Token0 AVAX0.001726346776 28.24243
0x0e11020784548683ed6648311879aabc38f71748c2ea92819ebd8cc814b1efccTransfer202555762022-09-25 10:50:091 hr 34 mins ago0x935f64b44b5c48a1539c4ada5161d27ace4205b5OUT0xa490fe589b50d5c731ca923c3b70d55344af13040.23137 AVAX0.001243313589 59.205409
0x233637118ef282628dd21712b357cf6f50450c623f29a0159d4a821e8dd3bc0cTransfer202554392022-09-25 10:45:201 hr 39 mins ago0x935f64b44b5c48a1539c4ada5161d27ace4205b5OUTTether: USDT Token0 AVAX0.002547032363 57.8371489
0x6ff028dce1d45e9878513bdbf44d2a50d8654a0a907346caaf72d1720b8bf2e9Transfer202553302022-09-25 10:41:241 hr 43 mins ago0x935f64b44b5c48a1539c4ada5161d27ace4205b5OUTTether: USDT Token0 AVAX0.001798916585 40.849189
0xff088c8a372d84ec92ea6c8c57fb3d15cf139cb9a41507095f05367a06a955d1Transfer202550982022-09-25 10:33:171 hr 51 mins ago0x935f64b44b5c48a1539c4ada5161d27ace4205b5OUTTether: USDT Token0 AVAX0.001237203572 28.094
0x7f929d0a18e0ddd2e0fffcc7c8873fa657ba63c749499e4972c86d7082674481Transfer202548552022-09-25 10:24:441 hr 59 mins ago0x935f64b44b5c48a1539c4ada5161d27ace4205b5OUT Centre: USD Coin0 AVAX0.001736769536 26.501
0xde0553f9b438e07de0f02611a60f881b335c83f9f8212471aabb4e3b9a784fd7Transfer202545792022-09-25 10:15:142 hrs 9 mins ago0x935f64b44b5c48a1539c4ada5161d27ace4205b5OUTTether: USDT Token0 AVAX0.001476910033 33.5371732
0x38450bf72958c2ccc1a0c912564fe3a212db848f79064c4afb9d6c640089ebafTransfer202544932022-09-25 10:12:132 hrs 12 mins ago0x935f64b44b5c48a1539c4ada5161d27ace4205b5OUTTether: USDT Token0 AVAX0.001606185265 36.472711417
0xe84a27ebf9f0ef460045b58ce3161bb065e24ca4e0e3b4a6e2f48c9aaf3f15c4Transfer202543202022-09-25 10:06:122 hrs 18 mins ago0x935f64b44b5c48a1539c4ada5161d27ace4205b5OUTTether: USDT Token0 AVAX0.001664227286 37.79071
0x0b335db3694764dca61984f165db57291d441eb2619d2b2030619db15f45e118Transfer202542322022-09-25 10:03:102 hrs 21 mins ago0x935f64b44b5c48a1539c4ada5161d27ace4205b5OUTTether: USDT Token0 AVAX0.002785367036 63.249172
[ Download CSV Export 
Parent Txn Hash Block From To Value
Loading

Contract Name:
0

Compiler Version
0

Optimization Enabled:
0

Other Settings:
-NA-
Block Transaction Gas Used Reward
Age Block Fee Address BC Fee Address Voting Power Jailed Incoming
Block Uncle Number Difficulty Gas Used Reward
Loading
Make sure to use the "Vote Down" button for any spammy posts, and the "Vote Up" for interesting conversations.